Location: Oberkirch
(48.5323°N, 8.0787°E)
Time: 16:56:20
(UTC+00:00)

SR - Pass Details

Date: 21 February 2026
Orbit: 572 x 848 km, 66.7° (Epoch: 8 March)

Event Time Altitude Azimuth Distance (km) Brightness Sun altitude
Exits shadow 05:15:41 15° 296° (WNW) 1,633 ? -12.1°
Maximum altitude 05:17:30 19° 327° (NNW) 1,476 ? -11.8°
Drops below altitude 10° 05:20:48 10° 13° (NNE) 2,044 ? -11.3°
Sets 05:23:47 0° 31° (NNE) 3,013 ? -10.8°
